CW7841 Weather Reports


Display with metric or nautical units.
time (UTC)temp
F
wind
direction
speed
MPH
gust
MPH
rain 1hr
in
rain 24hr
in
rain mn
in
humidity
%
barometer
mb
20181021145436 80 20 6.0 10.0 0.00 0.00 0.00 84 1018.1
20181021144436 80 24 0.0 10.0 0.00 0.00 0.00 85 1017.8
20181021143436 79 0 0.0 10.0 0.00 0.00 0.00 86 1017.7
20181021142936 79 333 0.0 10.0 0.00 0.00 0.00 87 1017.7
20181021142436 79 335 0.0 8.0 0.00 0.00 0.00 88 1017.7
20181021141936 79 342 0.0 8.0 0.00 0.00 0.00 87 1017.7
20181021141436 79 355 0.0 8.0 0.00 0.00 0.00 89 1017.7
20181021135936 78 285 0.0 7.0 0.00 0.00 0.00 93 1017.8
20181021135436 77 6 0.0 7.0 0.00 0.00 0.00 94 1017.7
20181021134436 77 359 0.0 6.0 0.00 0.00 0.00 92 1017.7
20181021133936 77 345 0.0 6.0 0.00 0.00 0.00 94 1017.8
20181021132936 76 0 0.0 6.0 0.00 0.00 0.00 94 1017.6
20181021131436 76 326 0.0 6.0 0.00 0.00 0.00 94 1017.6
20181021123936 75 310 0.0 0.0 0.00 0.00 0.00 94 1017.1
20181021121436 74 220 0.0 0.0 0.00 0.00 0.00 93 1016.9
20181021115936 74 220 0.0 0.0 0.00 0.00 0.00 93 1016.4
20181021115437 74 220 0.0 0.0 0.00 0.00 0.00 92 1016.5
20181021114436 74 220 0.0 0.0 0.00 0.00 0.00 92 1016.5
20181021113936 74 220 0.0 0.0 0.00 0.00 0.00 92 1016.4
20181021113436 74 219 0.0 0.0 0.00 0.00 0.00 92 1016.6
20181021112937 74 219 0.0 0.0 0.00 0.00 0.00 92 1016.3
20181021112436 74 219 0.0 0.0 0.00 0.00 0.00 92 1016.3
20181021110436 74 220 0.0 0.0 0.00 0.00 0.00 91 1016.5
20181021104936 74 220 0.0 0.0 0.00 0.00 0.00 91 1016.0
20181021103936 74 220 0.0 0.0 0.00 0.00 0.00 91 1016.0
20181021101936 74 220 0.0 0.0 0.00 0.00 0.00 91 1015.8
20181021101436 74 220 0.0 0.0 0.00 0.00 0.00 91 1015.9
20181021100437 74 220 0.0 0.0 0.00 0.00 0.00 91 1015.8
20181021095437 74 220 0.0 0.0 0.00 0.00 0.00 91 1015.8
20181021094937 74 220 0.0 0.0 0.00 0.00 0.00 91 1015.8
20181021094437 74 220 0.0 0.0 0.00 0.00 0.00 91 1015.5
20181021093937 74 220 0.0 0.0 0.00 0.00 0.00 91 1015.7
20181021093436 74 220 0.0 0.0 0.00 0.00 0.00 91 1015.5
20181021092937 74 220 0.0 0.0 0.00 0.00 0.00 91 1015.5
20181021092436 74 220 0.0 0.0 0.00 0.00 0.00 91 1015.4
20181021091437 75 219 0.0 0.0 0.00 0.00 0.00 90 1015.3
20181021090937 75 219 0.0 0.0 0.00 0.00 0.00 91 1015.4
20181021090437 75 218 0.0 0.0 0.00 0.00 0.00 91 1015.4
20181021085937 75 217 0.0 0.0 0.00 0.00 0.00 91 1015.4
20181021084937 75 209 0.0 0.0 0.00 0.00 0.00 92 1015.4
20181021084437 75 207 0.0 0.0 0.00 0.00 0.00 93 1015.4
20181021083937 75 217 0.0 0.0 0.00 0.00 0.00 91 1015.2
20181021083437 75 217 0.0 0.0 0.00 0.00 0.00 90 1015.1
20181021081937 76 219 0.0 0.0 0.00 0.00 0.00 90 1015.3
20181021081437 76 219 0.0 0.0 0.00 0.00 0.00 90 1015.1
20181021080937 76 218 0.0 0.0 0.00 0.00 0.00 90 1015.1
20181021075437 76 219 0.0 0.0 0.00 0.00 0.00 90 1015.2
20181021074937 76 219 0.0 0.0 0.00 0.00 0.00 90 1015.2
20181021074437 76 219 0.0 0.0 0.00 0.00 0.00 91 1015.2
20181021073937 76 219 0.0 0.0 0.00 0.00 0.00 91 1015.3
20181021072937 76 220 0.0 0.0 0.00 0.00 0.00 90 1015.3
20181021071937 76 220 0.0 0.0 0.00 0.00 0.00 90 1015.2
20181021070437 76 220 0.0 0.0 0.00 0.00 0.00 90 1015.3
20181021065937 76 220 0.0 0.0 0.00 0.00 0.00 90 1015.4
20181021064437 76 220 0.0 0.0 0.00 0.00 0.00 90 1015.3
20181021063937 76 220 0.0 0.0 0.00 0.00 0.00 90 1015.4
20181021063437 76 220 0.0 0.0 0.00 0.00 0.00 89 1015.4
20181021062937 77 220 0.0 0.0 0.00 0.00 0.00 89 1015.5
20181021061937 77 220 0.0 0.0 0.00 0.00 0.00 89 1015.6
20181021055937 77 220 0.0 1.0 0.00 0.00 0.00 89 1015.7
20181021054937 77 220 0.0 1.0 0.00 0.00 0.00 89 1015.6
20181021054437 77 220 0.0 1.0 0.00 0.00 0.00 89 1016.0
20181021052937 77 220 0.0 1.0 0.00 0.00 0.00 89 1015.9
20181021052437 77 220 0.0 1.0 0.00 0.00 0.00 89 1016.0
20181021051937 78 220 0.0 0.0 0.00 0.00 0.00 89 1016.1
20181021051437 78 220 0.0 0.0 0.00 0.00 0.00 88 1016.1
20181021050437 78 216 0.0 0.0 0.00 0.00 0.00 89 1016.3
20181021045937 78 217 0.0 3.0 0.00 0.00 0.00 89 1016.2
20181021044937 78 217 0.0 3.0 0.00 0.00 0.00 89 1016.2
20181021044438 78 217 0.0 3.0 0.00 0.00 0.00 89 1016.5
20181021042937 78 218 0.0 3.0 0.00 0.00 0.00 89 1016.4
20181021041937 78 219 0.0 3.0 0.00 0.00 0.00 89 1016.3
20181021041437 78 219 0.0 3.0 0.00 0.00 0.00 88 1016.5
20181021035937 78 223 0.0 0.0 0.00 0.00 0.00 88 1016.4
20181021035437 78 223 0.0 0.0 0.00 0.00 0.00 88 1016.7
20181021034937 78 223 0.0 0.0 0.00 0.00 0.00 88 1016.4
20181021032938 78 214 0.0 0.0 0.00 0.00 0.00 88 1016.8
20181021032438 78 208 0.0 0.0 0.00 0.00 0.00 89 1016.6
20181021031938 78 220 0.0 0.0 0.00 0.00 0.00 87 1016.9
20181021030937 79 221 0.0 0.0 0.00 0.00 0.00 87 1016.9
20181021030438 79 221 0.0 0.0 0.00 0.00 0.00 86 1016.8
20181021025937 79 289 0.0 7.0 0.00 0.00 0.00 85 1016.7
20181021025438 79 281 2.0 7.0 0.00 0.00 0.00 85 1017.0
20181021024438 80 113 0.0 0.0 0.00 0.00 0.00 84 1016.4
20181021023938 80 113 0.0 0.0 0.00 0.00 0.00 83 1016.4
20181021022938 80 113 0.0 0.0 0.00 0.00 0.00 83 1016.4
20181021022437 80 113 0.0 0.0 0.00 0.00 0.00 83 1016.1
20181021021438 80 113 0.0 0.0 0.00 0.00 0.00 83 1016.1
20181021015438 80 113 0.0 0.0 0.00 0.00 0.00 82 1016.1
20181021014938 80 113 0.0 0.0 0.00 0.00 0.00 83 1016.1
20181021011938 81 114 0.0 0.0 0.00 0.00 0.00 81 1016.2
20181021011438 81 114 0.0 0.0 0.00 0.00 0.00 81 1015.8
20181021010938 81 114 0.0 0.0 0.00 0.00 0.00 80 1015.9
20181021005938 81 114 0.0 0.0 0.00 0.00 0.00 80 1016.0
20181021005438 81 114 0.0 0.0 0.00 0.00 0.00 80 1015.9
20181021003938 82 113 0.0 0.0 0.00 0.00 0.00 80 1015.6
20181021003438 82 113 0.0 0.0 0.00 0.00 0.00 80 1015.8
20181021002938 82 113 0.0 0.0 0.00 0.00 0.00 80 1015.7
20181021002438 82 113 0.0 0.0 0.00 0.00 0.00 80 1015.3
20181021001938 82 113 0.0 0.0 0.00 0.00 0.00 80 1015.7
20181021001438 82 114 0.0 0.0 0.00 0.00 0.00 80 1015.4
20181021000938 82 114 0.0 0.0 0.00 0.00 0.00 80 1015.4
20181020235438 82 114 0.0 3.0 0.00 0.00 0.00 80 1015.2
20181020232438 82 109 0.0 3.0 0.00 0.00 0.00 79 1015.4
20181020231438 82 109 0.0 3.0 0.00 0.00 0.00 79 1015.3
20181020230938 82 144 0.0 3.0 0.00 0.00 0.00 79 1015.4
20181020230438 82 90 0.0 0.0 0.00 0.00 0.00 79 1015.0
20181020225438 82 89 0.0 0.0 0.00 0.00 0.00 79 1015.1
20181020224438 83 115 0.0 0.0 0.00 0.00 0.00 78 1015.2
20181020223938 83 115 0.0 0.0 0.00 0.00 0.00 78 1015.1
20181020223438 83 115 0.0 0.0 0.00 0.00 0.00 78 1015.0
20181020222938 83 115 0.0 0.0 0.00 0.00 0.00 78 1015.0
20181020221438 83 80 0.0 0.0 0.00 0.00 0.00 78 1015.0
20181020220938 83 90 0.0 0.0 0.00 0.00 0.00 77 1015.0
20181020215438 84 94 0.0 8.0 0.00 0.00 0.00 76 1014.8
20181020214938 84 111 0.0 8.0 0.00 0.00 0.00 76 1014.9
20181020213938 84 74 0.0 4.0 0.00 0.00 0.00 75 1015.1
20181020212438 84 58 0.0 4.0 0.00 0.00 0.00 76 1015.0
20181020211938 84 54 0.0 4.0 0.00 0.00 0.00 77 1015.2
20181020211438 84 66 0.0 4.0 0.00 0.00 0.00 77 1015.0
20181020210938 84 25 0.0 4.0 0.00 0.00 0.00 88 1015.2
20181020210438 84 34 0.0 4.0 0.00 0.00 0.00 82 1015.2
20181020205938 84 25 0.0 8.0 0.00 0.00 0.00 82 1015.3
20181020204938 84 65 0.0 8.0 0.00 0.00 0.00 80 1015.3
20181020204438 84 69 0.0 8.0 0.00 0.00 0.00 74 1015.0
20181020203938 84 41 2.0 8.0 0.00 0.00 0.00 75 1015.0
20181020203438 84 112 0.0 7.0 0.00 0.00 0.00 75 1015.0
20181020202938 85 44 1.0 7.0 0.00 0.00 0.00 74 1015.4
20181020201938 85 44 0.0 7.0 0.00 0.00 0.00 74 1015.2
20181020200938 85 54 0.0 6.0 0.00 0.00 0.00 75 1015.4
20181020195438 85 92 0.0 7.0 0.00 0.00 0.00 74 1015.3
20181020193938 85 85 0.0 7.0 0.00 0.00 0.00 74 1015.4
20181020193439 85 39 0.0 7.0 0.00 0.00 0.00 74 1015.6
20181020192438 86 78 0.0 6.0 0.00 0.00 0.00 74 1015.7
20181020191938 85 23 0.0 6.0 0.00 0.00 0.00 74 1015.6
20181020191438 85 103 0.0 6.0 0.00 0.00 0.00 77 1015.8
20181020190438 85 31 0.0 6.0 0.00 0.00 0.00 82 1015.8
20181020184439 85 64 0.0 8.0 0.00 0.00 0.00 76 1015.9
20181020183939 84 41 0.0 8.0 0.00 0.00 0.00 77 1016.2
20181020182939 84 26 0.0 8.0 0.00 0.00 0.00 76 1016.3
20181020182439 85 79 0.0 8.0 0.00 0.00 0.00 77 1016.3
20181020181438 84 100 0.0 7.0 0.00 0.00 0.00 78 1016.7
20181020180938 84 31 1.0 7.0 0.00 0.00 0.00 78 1016.6
20181020175939 84 47 0.0 7.0 0.00 0.00 0.00 78 1016.9
20181020174938 84 93 3.0 7.0 0.00 0.00 0.00 79 1017.1
20181020174439 83 51 0.0 7.0 0.00 0.00 0.00 79 1017.2
20181020173939 83 75 0.0 7.0 0.00 0.00 0.00 80 1017.5
20181020173439 83 30 0.0 7.0 0.00 0.00 0.00 79 1017.4
20181020172939 83 27 0.0 7.0 0.00 0.00 0.00 79 1017.5
20181020172438 83 31 3.0 7.0 0.00 0.00 0.00 78 1017.5
20181020171939 83 33 1.0 7.0 0.00 0.00 0.00 78 1017.6
20181020171439 83 42 0.0 6.0 0.00 0.00 0.00 78 1017.9
20181020165939 84 82 0.0 7.0 0.00 0.00 0.00 76 1017.9
20181020164939 84 25 4.0 7.0 0.00 0.00 0.00 76 1018.2
20181020164439 84 56 0.0 7.0 0.00 0.00 0.00 74 1018.3
20181020163939 85 56 0.0 7.0 0.00 0.00 0.00 74 1018.3
20181020163439 85 37 0.0 7.0 0.00 0.00 0.00 74 1018.6
20181020162939 85 125 0.0 7.0 0.00 0.00 0.00 74 1018.5
20181020161939 85 140 0.0 7.0 0.00 0.00 0.00 75 1018.9
20181020160439 84 161 0.0 0.0 0.00 0.00 0.00 77 1018.5
20181020155939 84 238 0.0 0.0 0.00 0.00 0.00 77 1018.9
20181020155439 83 238 0.0 0.0 0.00 0.00 0.00 77 1019.1
20181020154939 83 239 0.0 0.0 0.00 0.00 0.00 77 1019.2
20181020154439 84 239 0.0 0.0 0.00 0.00 0.00 76 1019.2
20181020153939 84 239 0.0 0.0 0.00 0.00 0.00 74 1019.2
20181020152939 84 154 0.0 0.0 0.00 0.00 0.00 100 1019.3
20181020152439 84 239 0.0 0.0 0.00 0.00 0.00 75 1019.4
20181020151939 84 239 0.0 0.0 0.00 0.00 0.00 75 1019.5
20181020151439 84 239 0.0 0.0 0.00 0.00 0.00 75 1019.3
20181020150939 84 239 0.0 0.0 0.00 0.00 0.00 77 1019.5
20181020150439 84 238 0.0 0.0 0.00 0.00 0.00 78 1019.6